Location: Kerberlivit
(48.2787°N, 4.5413°W)
Time: 03:34:13
(UTC+00:00)

Daily predictions for brighter satellites

Satellite Brightness Start Highest point End
(mag) Time Altitude Azimuth Time Altitude Azimuth Time Altitude Azimuth
Cosmos 2333 Rocket 4.4 03:19:49 20° NNE 03:19:49 20° NNE 03:21:30 10° NNE
ATLAS 2AS CENTAUR R/B 4.4 03:26:53 26° NNW 03:27:34 26° N 03:33:51 10° NE
ATLAS CENTAUR R/B 4.1 03:46:18 20° ENE 03:46:18 20° ENE 03:47:55 10° NE
Lacrosse 5 3.8 03:47:38 27° ENE 03:47:38 27° ENE 03:50:12 10° E
Cosmos 2237 Rocket 3.6 03:48:41 33° NNE 03:48:41 33° NNE 03:51:44 10° NNE
NOSS 3-1 (C) 4.4 03:53:58 54° SSE 03:53:58 54° SSE 04:00:21 10° SSE
BREEZE-M DEB (TANK) 4.0 03:54:29 83° N 03:54:29 83° N 03:59:15 10° ENE
Cosmos 2219 Rocket 4.0 03:58:46 22° N 03:58:46 22° N 04:01:04 10° NNE
CZ-2C R/B 4.0 03:54:01 10° NNE 03:58:41 33° E 03:59:16 32° ESE
CZ-4C R/B 3.2 04:02:10 43° NNE 04:02:10 43° NNE 04:06:27 10° NE
Cosmos 2360 Rocket 4.4 04:10:35 14° N 04:10:35 14° N 04:11:56 10° N
COSMOS 2428 4.4 04:16:33 23° N 04:16:33 23° N 04:19:18 10° NNE
Cosmos 1934 Rocket 4.0 04:08:57 10° N 04:15:16 77° E 04:21:38 10° SSE
Cosmos 1943 Rocket 3.3 04:13:11 23° N 04:16:05 40° NE 04:21:15 10° ESE
USA 215 3.5 04:16:14 10° NE 04:22:35 55° NNW 04:22:54 55° NNW
SL-16 R/B 2.3 04:28:22 70° SE 04:28:36 71° ESE 04:34:16 10° NNE
Cosmos 1605 Rocket 4.1 04:31:12 10° N 04:37:28 75° E 04:43:37 10° SSE
USA 229 DEB 4.4 04:41:12 39° SSW 04:41:12 39° SSW 04:46:22 10° S
USA 229 4.4 04:41:15 40° SSW 04:41:15 40° SSW 04:46:28 10° S
Cosmos 2369 Rocket 3.0 04:35:12 11° NNW 04:40:31 49° NE 04:46:04 10° SE
NOSS 3-1 (A) 4.0 04:44:10 48° WNW 04:46:17 63° SW 04:54:44 10° SSE
Meteor 2-3 Rocket 3.9 04:51:15 10° N 04:57:01 75° ENE 05:02:48 10° SSE
Cosmos 2333 Rocket 4.0 05:01:49 17° NNW 05:01:49 17° NNW 05:04:53 10° N
IDEFIX/ARIANE 42P 3.8 04:59:47 10° N 05:02:41 26° NNW 05:02:41 26° NNW
Cosmos 1727 Rocket 4.2 04:59:29 10° S 05:05:36 68° E 05:11:45 10° NNE
Cosmos 1484 Rocket 3.6 05:02:37 10° NNE 05:06:28 51° E 05:10:21 10° S
Cosmos 2251 Rocket 3.5 05:08:59 55° WSW 05:09:48 63° WNW 05:15:05 10° NNE
SKYMED 2 4.0 05:08:19 10° SSE 05:12:37 63° ENE 05:16:55 10° N
Cosmos 1339 Rocket 4.3 05:08:04 12° SSW 05:13:41 72° W 05:19:49 10° N
PAYLOAD A 4.1 05:09:56 10° N 05:14:36 49° WNW 05:14:39 49° WNW
NOSS 2-1 (C) 3.7 05:15:15 45° N 05:15:15 45° N 05:18:23 10° NE
STARLINK-1145 4.5 05:16:44 27° NNE 05:16:44 27° NNE 05:18:41 10° ENE
STARLINK-1172 4.5 05:16:57 27° NNE 05:16:57 27° NNE 05:18:54 10° ENE
STARLINK-1162 4.3 05:17:03 32° NNE 05:17:03 32° NNE 05:19:30 10° ENE
STARLINK-1182 4.5 05:17:23 27° NNE 05:17:23 27° NNE 05:19:21 10° ENE
STARLINK-1164 4.5 05:17:35 27° NNE 05:17:35 27° NNE 05:19:34 10° ENE
STARLINK-1168 4.5 05:17:49 27° NNE 05:17:49 27° NNE 05:19:48 10° ENE
STARLINK-1183 4.4 05:18:27 27° NNE 05:18:27 27° NNE 05:20:28 10° ENE
STARLINK-1181 4.4 05:18:40 27° NNE 05:18:40 27° NNE 05:20:41 10° ENE
Cosmos 1500 Rocket 3.6 05:13:34 10° N 05:18:02 81° E 05:22:27 10° SSE
STARLINK-1157 4.2 05:18:51 32° NNE 05:18:51 32° NNE 05:21:24 10° ENE
NOSS 2-1 (D) 3.7 05:19:14 43° NNW 05:19:14 43° NNW 05:22:26 10° NNE
STARLINK-1196 4.4 05:19:20 28° NNE 05:19:20 28° NNE 05:21:23 10° ENE
STARLINK-1186 4.4 05:19:46 28° NNE 05:19:46 28° NNE 05:21:50 10° ENE
CZ-4B R/B 2.5 05:15:33 10° NNE 05:19:17 87° ESE 05:20:20 45° S
STARLINK-1185 4.4 05:19:58 28° NNE 05:19:58 28° NNE 05:22:03 10° ENE
STARLINK-1175 4.4 05:20:12 28° NNE 05:20:12 28° NNE 05:22:17 10° ENE
STARLINK-1147 4.4 05:20:24 28° NNE 05:20:24 28° NNE 05:22:31 10° ENE
STARLINK-1146 4.3 05:20:36 28° NNE 05:20:36 28° NNE 05:22:44 10° ENE
STARLINK-1152 4.3 05:20:50 28° NNE 05:20:50 28° NNE 05:22:58 10° ENE
STARLINK-1195 4.3 05:21:03 28° NNE 05:21:03 28° NNE 05:23:11 10° ENE
STARLINK-1159 4.2 05:20:51 33° N 05:20:51 33° N 05:23:29 10° ENE
STARLINK-1137 4.3 05:21:16 28° NNE 05:21:16 28° NNE 05:23:24 10° ENE
STARLINK-1142 4.3 05:21:30 28° NNE 05:21:30 28° NNE 05:23:39 10° ENE
ATLAS 2AS CENTAUR R/B 4.3 05:14:19 10° NW 05:21:03 31° NNE 05:27:31 10° E
STARLINK-1127 4.3 05:21:42 28° NNE 05:21:42 28° NNE 05:23:51 10° ENE
STARLINK-1184 4.3 05:21:56 28° NNE 05:21:56 28° NNE 05:24:05 10° ENE
STARLINK-1193 4.3 05:22:08 29° NNE 05:22:08 29° NNE 05:24:19 10° ENE
STARLINK-1194 4.3 05:22:21 29° NNE 05:22:21 29° NNE 05:24:31 10° ENE
ATLAS CENTAUR R/B 2.0 05:22:30 42° NW 05:22:45 43° NW 05:26:59 10° NNE
STARLINK-1171 4.1 05:22:59 33° N 05:22:59 33° N 05:25:42 10° ENE
Okean O Rocket 3.9 05:20:22 10° NE 05:24:01 25° E 05:27:39 10° SSE
STARLINK-1155 4.1 05:24:44 33° N 05:24:44 33° N 05:27:32 10° ENE
STARLINK-1166 4.1 05:26:53 33° N 05:26:53 33° N 05:29:46 10° ENE
Meteor 1-27 4.2 05:21:35 10° S 05:27:08 85° E 05:32:44 10° NNE
Cosmos 2100 Rocket 4.2 05:20:53 10° N 05:27:09 73° E 05:33:17 10° SSE
Lacrosse 5 1.8 05:26:51 39° WNW 05:28:34 63° SW 05:33:33 10° SE
STARLINK-1165 4.0 05:28:43 33° N 05:28:46 33° N 05:31:43 10° ENE
STARLINK-1149 4.2 05:29:32 26° NNE 05:29:32 26° NNE 05:31:32 10° ENE
Cosmos 1743 Rocket 3.4 05:25:33 10° NNW 05:29:52 72° W 05:34:10 10° S
Cosmos 2237 Rocket 3.5 05:30:31 22° NW 05:30:51 22° NW 05:35:12 10° N
STARLINK-1169 4.0 05:30:43 33° N 05:30:51 33° N 05:33:47 10° ENE
H-2A R/B 2.5 05:26:33 10° N 05:30:53 64° WNW 05:34:00 19° SSW
STARLINK-1178 4.0 05:32:37 33° NNW 05:32:50 33° N 05:35:47 10° ENE
Meteor 1-31 Rocket 2.8 05:30:38 10° N 05:34:20 50° WNW 05:34:48 46° W
STARLINK-1132 4.0 05:34:49 28° N 05:34:49 28° N 05:37:15 10° ENE
STARLINK-1120 4.0 05:34:28 32° NNW 05:34:46 33° N 05:37:43 10° ENE
GEOS 3 Rocket 3.6 05:29:28 10° NE 05:34:47 81° NW 05:38:29 21° SW
ADEOS 4.3 05:31:55 10° N 05:36:29 31° WNW 05:37:07 30° WNW
CZ-2C R/B 3.0 05:32:09 10° N 05:36:57 39° WNW 05:38:39 30° WSW
STARLINK-1131 4.0 05:36:36 32° NNW 05:37:00 33° N 05:39:56 10° ENE
Cosmos 1356 Rocket 3.9 05:37:24 36° WNW 05:37:24 36° WNW 05:40:54 10° N
STARLINK-1150 4.0 05:37:18 28° N 05:37:18 28° N 05:39:44 10° ENE
STARLINK-1124 4.4 05:36:35 22° S 05:37:41 29° SE 05:40:17 10° E
STARLINK-1163 4.0 05:38:34 28° N 05:38:40 28° N 05:41:09 10° ENE
STARLINK-1190 4.0 05:38:38 31° NNW 05:39:07 33° N 05:42:05 10° ENE
STARLINK-1173 3.9 05:40:14 28° N 05:40:22 28° N 05:42:49 10° ENE
ADEOS Rocket 3.9 05:34:36 10° SE 05:40:42 57° ENE 05:47:32 10° N
STARLINK-1177 3.9 05:40:37 28° N 05:40:45 28° N 05:43:11 10° ENE
Cosmos 2219 Rocket 4.2 05:40:28 11° NW 05:41:29 11° NNW 05:43:15 10° N
STARLINK-1167 3.9 05:41:41 28° N 05:41:53 28° N 05:44:21 10° ENE
Cosmos 1459 Rocket 4.0 05:37:20 10° N 05:43:32 88° E 05:49:48 10° S
Cosmos 1842 Rocket 3.7 05:40:14 11° SSW 05:44:25 51° WNW 05:48:50 10° N
STARLINK-1071 4.5 05:43:24 17° S 05:44:58 28° SE 05:47:34 10° E
STARLINK-1110 4.5 05:43:36 17° SSW 05:45:12 28° SE 05:47:48 10° E
STARLINK-1122 4.5 05:44:02 17° SSW 05:45:38 29° SE 05:48:14 10° E
STARLINK-1126 4.5 05:44:15 17° SSW 05:45:52 29° SE 05:48:28 10° E
STARLINK-1082 4.5 05:44:28 17° SSW 05:46:06 29° SE 05:48:42 10° E
TELKOM 3 3.4 05:46:25 47° NNE 05:46:25 47° NNE 05:48:13 10° ENE
BREEZE M DEB (TANK) 3.1 05:44:47 34° WNW 05:46:09 80° N 05:53:48 10° E
Meteor 2-10 Rocket 4.3 05:45:09 27° W 05:46:14 30° WNW 05:50:46 10° N
STARLINK-1100 4.4 05:44:41 17° SSW 05:46:18 29° SE 05:48:55 10° E
STARLINK-1083 4.4 05:44:54 17° SSW 05:46:33 29° SE 05:49:09 10° E
STARLINK-1125 4.4 05:45:08 17° SSW 05:46:47 29° SE 05:49:23 10° E
STARLINK-1136 3.9 05:46:27 27° NNW 05:46:55 29° N 05:49:26 10° ENE
Shenzhou-11 Module 4.4 05:46:59 10° S 05:48:10 12° SSE 05:49:25 10° SE
METEOR-M 4.2 05:42:49 10° NNE 05:48:12 86° ESE 05:53:33 10° SSW
CZ-4C R/B 3.6 05:47:21 19° WNW 05:49:58 26° NNW 05:55:24 10° NE
Cosmos 1869 3.2 05:51:12 10° SSW 05:55:11 75° W 05:59:11 10° N
Cosmos 407 Rocket 3.5 05:50:53 10° SSW 05:56:14 87° WNW 06:01:34 10° NNE
ALOS 2.2 05:52:25 10° N 05:57:06 73° WNW 06:01:45 10° SSW
STARLINK-1129 4.1 05:57:12 23° NW 05:58:35 34° N 06:01:35 10° ENE
Cosmos 921 Rocket 3.0 05:55:15 10° NNW 05:59:41 66° WSW 06:03:59 10° S
Cosmos 1943 Rocket 2.6 05:54:46 10° NW 05:59:47 37° WSW 06:04:47 10° S
Cosmos 1140 Rocket 3.7 05:55:01 10° SSW 06:00:14 75° ESE 06:05:30 10° NNE
STARLINK-1134 4.1 05:59:02 22° NW 06:00:30 34° N 06:03:29 10° ENE
COSMO-SKYMED 1 2.9 05:56:35 10° S 06:00:42 43° W 06:04:52 10° NNW
USA 116 3.0 05:57:48 10° S 06:00:59 69° WSW 06:04:04 10° NNW
Cosmos 1802 Rocket 4.0 05:54:42 10° N 06:01:11 84° W 06:07:36 10° S
STARLINK-1135 4.1 06:01:19 21° NW 06:02:53 34° N 06:05:54 10° ENE
SJ-12 3.9 05:59:00 10° N 06:03:04 59° WNW 06:07:08 10° SSW
USA 215 4.0 05:58:54 10° ENE 06:04:57 42° N 06:10:15 13° WNW
STARLINK-1141 4.1 06:03:27 20° NW 06:05:06 34° N 06:08:07 10° ENE
Cosmos 1633 Rocket 4.0 06:01:20 10° N 06:05:37 51° ENE 06:09:53 10° SSE
NOSS 2-1 (E) 4.4 06:04:49 21° WNW 06:06:04 25° NNW 06:09:30 10° NNE
STARLINK-1140 4.1 06:05:24 20° NW 06:07:09 34° N 06:10:10 10° ENE
Cosmos 1666 Rocket 4.1 06:02:53 10° N 06:07:19 64° ENE 06:11:42 10° SSE
STARLINK-1170 3.9 06:06:28 20° NW 06:07:39 29° N 06:10:02 10° ENE
STARLINK-1156 4.1 06:07:28 19° NW 06:09:18 35° N 06:12:20 10° ENE
Cosmos 2221 3.1 06:07:21 10° SW 06:11:16 35° WNW 06:15:14 10° N
STARLINK-1148 4.1 06:09:28 18° NW 06:11:24 35° N 06:14:26 10° ENE
SL-16 R/B 3.3 06:10:17 17° W 06:13:16 25° NW 06:17:58 10° N
Helios 1A Rocket 3.9 06:09:16 10° NNE 06:13:21 52° E 06:17:22 10° S
MOS 1-B 4.3 06:07:39 10° NNE 06:13:29 74° WNW 06:19:16 10° SSW
STARLINK-1158 4.0 06:11:38 17° NW 06:13:40 35° N 06:16:42 10° ENE
Aureole 2 Rocket 3.0 06:14:56 18° WNW 06:16:29 28° WSW 06:19:13 10° SSW
Cosmos 1190 Rocket 4.0 06:14:02 10° SSW 06:19:17 67° WNW 06:24:36 10° NNE
FENGYUN 3A 3.8 06:14:23 10° N 06:19:42 54° WNW 06:24:58 10° SW
H-2A R/B 3.6 06:18:45 10° NNE 06:22:28 53° E 06:26:07 10° S
Cosmos 2369 Rocket 2.9 06:19:22 10° NW 06:24:21 31° WSW 06:29:19 10° SSW
Cosmos 614 Rocket 4.2 06:20:36 10° SW 06:25:34 46° WNW 06:30:36 10° NNE
STARLINK-1179 3.7 06:25:41 13° NW 06:27:40 32° NNE 06:30:04 10° E
STARLINK-1176 3.7 06:26:08 13° NW 06:28:09 32° NNE 06:30:34 10° E
Cosmos 1862 3.3 06:24:42 10° NNW 06:28:36 59° W 06:32:30 10° S
Cosmos 1603 3.9 06:23:29 10° SW 06:29:02 51° NW 06:34:36 10° NNE
Cosmos 2016 Rocket 4.0 06:23:25 10° NNW 06:29:33 63° W 06:35:45 10° S
CZ-4B DEB 4.3 06:26:27 10° N 06:31:49 56° WNW 06:37:08 10° SW
Cosmos 482 Debris 3.6 06:31:36 16° W 06:32:35 26° SSW 06:34:13 10° SSE
Cosmos 1943 3.3 06:29:29 10° SW 06:35:01 57° WNW 06:40:36 10° NNE
STARLINK-1098 4.2 06:32:04 10° SW 06:36:00 56° SE 06:39:56 10° ENE
Cosmos 676 Rocket 4.0 06:31:13 10° SSW 06:36:33 77° WNW 06:41:55 10° NNE
SMAP 3.6 06:33:04 10° NNE 06:37:43 64° ESE 06:42:20 10° S
Cosmos 1633 3.7 06:37:21 10° NW 06:40:18 23° W 06:43:15 10° SW
Cosmos 1484 Rocket 4.4 06:37:58 10° NNW 06:40:32 17° WNW 06:43:07 10° WSW
STARLINK-1123 4.1 06:36:37 10° SW 06:40:34 60° SSE 06:44:32 10° ENE
CZ-4B R/B 3.1 06:36:28 10° N 06:41:47 69° WNW 06:47:01 10° SSW
Cosmos 1656 Rocket 4.1 06:39:16 10° NW 06:44:39 45° WSW 06:50:01 10° S
STARLINK-1097 4.0 06:41:14 10° SW 06:45:13 64° SSE 06:49:12 10° ENE
COSMOS 2455 4.2 06:40:37 10° NNW 06:46:09 36° NE 06:51:39 10° ESE
Cosmos 1470 Rocket 3.9 06:42:34 10° N 06:47:03 76° E 06:51:31 10° SSE
Cosmos 2233 Rocket 4.1 06:41:32 10° N 06:47:49 85° W 06:54:08 10° S
Cosmos 1805 Rocket 4.5 06:44:22 10° NNW 06:48:00 26° W 06:51:36 10° SW
STARLINK-1153 3.6 06:46:17 10° WNW 06:49:06 41° NNE 06:51:54 10° E
STARLINK-1180 3.6 06:46:29 10° WNW 06:49:19 41° NNE 06:52:09 10° E
NOAA 6 4.2 06:44:18 10° N 06:49:19 51° WNW 06:54:18 10° SW
STARLINK-1174 3.6 06:46:57 10° WNW 06:49:46 41° NNE 06:52:34 10° E
STARLINK-1099 3.9 06:45:54 10° SW 06:49:53 68° SSE 06:53:53 10° ENE
